IN3XSV-15 Weather Reports


time (UTC)temp
C
wind
direction
speed
KPH
gust
KPH
rain 1hr
cm
rain 24hr
cm
rain mn
cm
humidity
%
barometer
mb
20260502200004 6 180 0.0 0.0 0.00 0.00 0.00 58 864.2
20260502195504 7 337 0.0 0.0 0.00 0.00 0.00 59 864.1
20260502195004 7 180 0.0 0.0 0.00 0.00 0.00 59 864.1
20260502194504 7 180 0.0 0.0 0.00 0.00 0.00 60 864.1
20260502194004 7 180 0.0 0.0 0.00 0.00 0.00 60 864.1
20260502193504 7 180 0.0 0.0 0.00 0.00 0.00 61 864.0
20260502193004 7 180 0.0 0.0 0.00 0.00 0.00 61 864.0
20260502192504 7 270 0.0 0.0 0.00 0.00 0.00 61 864.0
20260502192004 7 180 0.0 0.0 0.00 0.00 0.00 62 864.0
20260502191504 7 180 0.0 0.0 0.00 0.00 0.00 62 864.0
20260502191004 7 157 0.0 0.0 0.00 0.00 0.00 62 863.9
20260502190504 7 157 0.0 0.0 0.00 0.00 0.00 61 864.0
20260502190004 7 180 0.0 0.0 0.00 0.00 0.00 61 863.9
20260502185504 7 202 0.0 0.0 0.00 0.00 0.00 62 863.9
20260502185004 7 180 0.0 0.0 0.00 0.00 0.00 62 863.9
20260502184504 7 180 0.0 0.0 0.00 0.00 0.00 62 863.9
20260502184004 7 180 0.0 0.0 0.00 0.00 0.00 61 863.8
20260502183504 8 157 0.0 0.0 0.00 0.00 0.00 61 863.8
20260502183004 8 225 0.0 0.0 0.00 0.00 0.00 61 863.6
20260502182504 8 292 0.0 0.0 0.00 0.00 0.00 62 863.6
20260502182004 8 315 0.0 0.0 0.00 0.00 0.00 62 863.6
20260502181504 8 292 0.0 0.0 0.00 0.00 0.00 63 863.6
20260502181004 8 315 0.0 0.0 0.00 0.00 0.00 63 863.6
20260502180504 8 315 0.0 0.0 0.00 0.00 0.00 63 863.6
20260502170504 8 180 0.0 0.0 0.00 0.00 0.00 61 863.6
20260502164004 9 180 0.0 0.0 0.00 0.00 0.00 60 863.7
20260502163504 9 180 0.0 3.2 0.00 0.00 0.00 60 863.7
20260502163004 9 180 0.0 0.0 0.00 0.00 0.00 61 863.6
20260502162504 8 0 0.0 4.8 0.00 0.00 0.00 60 863.7
20260502162004 8 180 0.0 4.8 0.00 0.00 0.00 60 863.7
20260502161504 8 180 0.0 1.6 0.00 0.00 0.00 60 863.8
20260502161004 9 180 0.0 3.2 0.00 0.00 0.00 60 863.6
20260502160504 9 180 3.2 4.8 0.00 0.00 0.00 60 863.7
20260502152004 10 180 1.6 4.8 0.00 0.00 0.00 59 863.9
20260502151504 10 180 1.6 6.4 0.00 0.00 0.00 58 864.0
20260502151004 10 202 1.6 3.2 0.00 0.00 0.00 58 864.0
20260502150504 10 202 0.0 6.4 0.00 0.00 0.00 58 863.9
20260502130505 11 180 14.5 14.5 0.00 0.00 0.00 55 864.6
20260502123505 11 202 0.0 3.2 0.00 0.00 0.00 55 864.7
20260502123005 11 0 1.6 6.4 0.00 0.00 0.00 55 864.4
20260502122505 11 180 0.0 8.0 0.00 0.00 0.00 54 864.6
20260502122005 11 247 0.0 12.9 0.00 0.00 0.00 54 864.6
20260502121505 11 45 0.0 9.7 0.00 0.00 0.00 54 864.5
20260502121005 11 337 0.0 8.0 0.00 0.00 0.00 54 864.6
20260502120505 11 270 0.0 8.0 0.00 0.00 0.00 54 864.7
20260502115505 11 180 4.8 9.7 0.00 0.00 0.00 54 864.6
20260502115005 11 225 0.0 8.0 0.00 0.00 0.00 53 864.6
20260502114505 11 180 0.0 11.3 0.00 0.00 0.00 53 864.6
20260502114005 11 180 3.2 8.0 0.00 0.00 0.00 53 864.8
20260502113505 12 337 0.0 6.4 0.00 0.00 0.00 53 864.6
20260502113005 12 337 0.0 9.7 0.00 0.00 0.00 52 864.8
20260502112505 12 180 8.0 8.0 0.00 0.00 0.00 52 864.8
20260502112005 12 180 4.8 11.3 0.00 0.00 0.00 50 864.7
20260502111505 12 180 4.8 8.0 0.00 0.00 0.00 51 864.8
20260502111005 12 180 0.0 6.4 0.00 0.00 0.00 50 864.6
20260502110505 13 180 4.8 6.4 0.00 0.00 0.00 49 864.8
20260502110005 13 180 3.2 8.0 0.00 0.00 0.00 48 864.8
20260502105505 13 180 0.0 6.4 0.00 0.00 0.00 49 864.9
20260502105005 13 337 0.0 3.2 0.00 0.00 0.00 49 864.9
20260502104505 13 22 0.0 6.4 0.00 0.00 0.00 49 864.9
20260502104005 13 180 1.6 6.4 0.00 0.00 0.00 49 865.0
20260502103505 13 180 0.0 8.0 0.00 0.00 0.00 48 865.0
20260502103005 13 180 0.0 6.4 0.00 0.00 0.00 48 865.0
20260502102505 13 45 0.0 1.6 0.00 0.00 0.00 48 865.0
20260502102005 13 112 0.0 6.4 0.00 0.00 0.00 48 865.0
20260502101505 13 157 0.0 3.2 0.00 0.00 0.00 48 865.2
20260502101005 13 180 3.2 3.2 0.00 0.00 0.00 47 865.1
20260502100505 13 180 0.0 0.0 0.00 0.00 0.00 47 865.2
20260502091505 15 157 0.0 0.0 0.00 0.00 0.00 44 864.9
20260502091005 15 337 0.0 0.0 0.00 0.00 0.00 44 865.0
20260502090505 15 22 0.0 0.0 0.00 0.00 0.00 45 864.8
20260502071505 17 225 0.0 0.0 0.00 0.00 0.00 43 864.6
20260502071005 17 0 0.0 0.0 0.00 0.00 0.00 43 864.7
20260502070505 18 22 0.0 0.0 0.00 0.00 0.00 42 864.6
20260502070005 18 180 0.0 0.0 0.00 0.00 0.00 41 864.7
20260502065505 18 180 0.0 0.0 0.00 0.00 0.00 42 864.7
20260502065005 18 247 0.0 0.0 0.00 0.00 0.00 42 864.7
20260502064505 17 202 0.0 0.0 0.00 0.00 0.00 43 864.6
20260502064005 16 202 0.0 0.0 0.00 0.00 0.00 44 864.6
20260502063505 15 202 0.0 0.0 0.00 0.00 0.00 46 864.6
20260502063005 13 202 0.0 0.0 0.00 0.00 0.00 47 864.6
20260502062505 13 202 0.0 0.0 0.00 0.00 0.00 45 864.6
20260502062005 13 202 0.0 0.0 0.00 0.00 0.00 45 864.6
20260502061505 13 202 0.0 0.0 0.00 0.00 0.00 46 864.6
20260502061005 12 202 0.0 0.0 0.00 0.00 0.00 47 864.6
20260502060505 12 202 0.0 0.0 0.00 0.00 0.00 46 864.6
20260502060005 12 202 0.0 0.0 0.00 0.00 0.00 45 864.6
20260502055505 12 202 0.0 0.0 0.00 0.00 0.00 44 864.5
20260502055005 13 202 0.0 0.0 0.00 0.00 0.00 43 864.6
20260502054505 15 202 0.0 0.0 0.00 0.00 0.00 42 864.6
20260502054005 16 202 0.0 0.0 0.00 0.00 0.00 42 864.6
20260502053505 17 202 0.0 0.0 0.00 0.00 0.00 41 864.6
20260502053005 20 202 0.0 0.0 0.00 0.00 0.00 41 864.6
20260502052505 20 202 0.0 0.0 0.00 0.00 0.00 42 864.7
20260502052005 18 202 0.0 0.0 0.00 0.00 0.00 46 864.7
20260502051505 16 202 0.0 0.0 0.00 0.00 0.00 47 864.7
20260502051005 15 202 0.0 0.0 0.00 0.00 0.00 49 864.6
20260502050505 13 202 0.0 0.0 0.00 0.00 0.00 52 864.6
20260502050005 10 202 0.0 0.0 0.00 0.00 0.00 55 864.6
20260502045505 8 202 0.0 0.0 0.00 0.00 0.00 57 864.6
20260502045005 7 202 0.0 0.0 0.00 0.00 0.00 59 864.6
20260502044505 6 180 0.0 0.0 0.00 0.00 0.00 60 864.8
20260502044005 6 180 0.0 0.0 0.00 0.00 0.00 60 864.7
20260502043505 5 247 0.0 0.0 0.00 0.00 0.00 62 864.7
20260502043005 5 225 0.0 0.0 0.00 0.00 0.00 62 864.7
20260502042505 5 180 0.0 0.0 0.00 0.00 0.00 62 864.7
20260502042005 5 315 0.0 0.0 0.00 0.00 0.00 63 864.6
20260502041505 3 337 0.0 0.0 0.00 0.00 0.00 64 864.6
20260502041005 3 337 0.0 0.0 0.00 0.00 0.00 64 864.6
20260502040505 3 0 0.0 0.0 0.00 0.00 0.00 65 864.6
20260502040005 3 0 0.0 0.0 0.00 0.00 0.00 64 864.7
20260502035505 3 22 0.0 0.0 0.00 0.00 0.00 64 864.6
20260502035005 3 337 0.0 0.0 0.00 0.00 0.00 64 864.6
20260502034505 3 337 0.0 0.0 0.00 0.00 0.00 64 864.6
20260502034005 3 337 0.0 0.0 0.00 0.00 0.00 65 864.7
20260502033505 3 337 0.0 0.0 0.00 0.00 0.00 65 864.6
20260502033005 3 180 0.0 0.0 0.00 0.00 0.00 65 864.7
20260502032505 3 157 0.0 0.0 0.00 0.00 0.00 64 864.7
20260502032005 3 180 0.0 0.0 0.00 0.00 0.00 63 864.6
20260502031505 3 0 0.0 0.0 0.00 0.00 0.00 63 864.6
20260502031005 3 157 0.0 0.0 0.00 0.00 0.00 63 864.6
20260502030505 3 22 0.0 0.0 0.00 0.00 0.00 63 864.7
20260502030005 3 157 0.0 0.0 0.00 0.00 0.00 63 864.7
20260502025505 3 247 0.0 0.0 0.00 0.00 0.00 62 864.7
20260502025005 3 315 0.0 0.0 0.00 0.00 0.00 62 864.6
20260502024506 3 22 0.0 0.0 0.00 0.00 0.00 62 864.9
20260502024005 3 270 0.0 0.0 0.00 0.00 0.00 62 864.8
20260502023505 3 180 0.0 0.0 0.00 0.00 0.00 61 864.9
20260502023005 3 0 0.0 0.0 0.00 0.00 0.00 61 864.9
20260502022505 3 315 0.0 0.0 0.00 0.00 0.00 61 864.7
20260502022005 3 157 0.0 0.0 0.00 0.00 0.00 60 865.0
20260502021505 3 0 0.0 0.0 0.00 0.00 0.00 60 864.9
20260502021005 3 180 0.0 0.0 0.00 0.00 0.00 61 865.0
20260502020506 3 337 0.0 0.0 0.00 0.00 0.00 61 864.9
20260502020006 3 292 0.0 0.0 0.00 0.00 0.00 61 865.1
20260502015505 3 180 0.0 0.0 0.00 0.00 0.00 62 865.1
20260502015006 3 292 0.0 0.0 0.00 0.00 0.00 61 865.0
20260502014506 3 337 0.0 0.0 0.00 0.00 0.00 61 865.0
20260502014006 3 292 0.0 0.0 0.00 0.00 0.00 62 865.1
20260502013506 3 315 0.0 0.0 0.00 0.00 0.00 63 865.1
20260502013006 3 315 0.0 1.6 0.00 0.00 0.00 63 865.1
20260502012506 3 0 0.0 1.6 0.00 0.00 0.00 63 865.2
20260502012006 3 180 0.0 0.0 0.00 0.00 0.00 62 865.1
20260502011506 3 45 0.0 0.0 0.00 0.00 0.00 62 865.1
20260502011006 3 0 0.0 0.0 0.00 0.00 0.00 63 865.2
20260502010506 3 337 0.0 0.0 0.00 0.00 0.00 64 865.2
20260502010006 3 337 0.0 3.2 0.00 0.00 0.00 63 865.2
20260502005506 3 112 0.0 4.8 0.00 0.00 0.00 63 865.2
20260502005006 3 157 0.0 8.0 0.00 0.00 0.00 63 865.3
20260502004506 3 180 1.6 8.0 0.00 0.00 0.00 65 865.3
20260502004006 3 0 0.0 6.4 0.00 0.00 0.00 64 865.3
20260502003506 3 67 0.0 6.4 0.00 0.00 0.00 64 865.4
20260502003006 3 90 0.0 8.0 0.00 0.00 0.00 65 865.4
20260502002506 3 315 0.0 9.7 0.00 0.00 0.00 65 865.2
20260502002006 3 135 0.0 9.7 0.00 0.00 0.00 66 865.3
20260502001506 3 315 0.0 9.7 0.00 0.00 0.00 66 865.2
20260502001006 3 180 3.2 8.0 0.00 0.00 0.00 66 865.4
20260502000506 3 180 3.2 8.0 0.00 0.00 0.00 67 865.5
20260502000006 3 22 0.0 9.7 0.00 0.00 0.00 67 865.5
20260501235506 3 135 0.0 9.7 0.00 0.00 0.00 67 865.5
20260501235006 3 180 6.4 9.7 0.00 0.00 0.00 67 865.4
20260501234506 3 180 6.4 9.7 0.00 0.00 0.00 67 865.4
20260501234006 3 180 6.4 9.7 0.00 0.00 0.00 67 865.6
20260501233506 3 180 4.8 8.0 0.00 0.00 0.00 66 865.5
20260501233006 3 180 1.6 9.7 0.00 0.00 0.00 67 865.7
20260501232506 3 180 3.2 11.3 0.00 0.00 0.00 67 865.6
20260501232006 3 180 9.7 9.7 0.00 0.00 0.00 68 865.6
20260501231506 3 180 0.0 11.3 0.00 0.00 0.00 67 865.5
20260501231006 3 180 3.2 9.7 0.00 0.00 0.00 67 865.6
20260501230506 4 180 6.4 8.0 0.00 0.00 0.00 67 865.6
20260501230006 4 180 3.2 9.7 0.00 0.00 0.00 67 865.8
20260501225506 4 180 6.4 9.7 0.00 0.00 0.00 67 865.6
20260501225006 4 180 3.2 6.4 0.00 0.00 0.00 67 865.7
20260501224506 5 180 1.6 9.7 0.00 0.00 0.00 67 865.7
20260501224006 5 180 4.8 6.4 0.00 0.00 0.00 67 865.7
20260501223506 5 180 3.2 6.4 0.00 0.00 0.00 66 865.7
20260501223006 5 180 1.6 3.2 0.00 0.00 0.00 66 865.7
20260501222506 5 180 0.0 3.2 0.00 0.00 0.00 65 865.7
20260501222006 5 180 0.0 6.4 0.00 0.00 0.00 65 865.7
20260501221506 5 180 0.0 4.8 0.00 0.00 0.00 64 865.6
20260501221006 5 180 3.2 4.8 0.00 0.00 0.00 64 865.8
20260501220506 5 180 0.0 4.8 0.00 0.00 0.00 63 865.8
20260501220006 5 180 0.0 6.4 0.00 0.00 0.00 63 865.6
20260501215506 5 180 0.0 4.8 0.00 0.00 0.00 62 865.6
20260501215006 5 202 0.0 6.4 0.00 0.00 0.00 62 865.7
20260501214506 5 22 0.0 8.0 0.00 0.00 0.00 62 865.7
20260501214006 6 225 0.0 6.4 0.00 0.00 0.00 62 865.5
20260501213506 6 180 0.0 0.0 0.00 0.00 0.00 62 865.6
20260501213006 6 157 3.2 3.2 0.00 0.00 0.00 62 865.5
20260501212506 6 180 3.2 6.4 0.00 0.00 0.00 63 865.5
20260501212006 6 135 0.0 6.4 0.00 0.00 0.00 63 865.5
20260501211506 6 157 0.0 0.0 0.00 0.00 0.00 64 865.6
20260501211006 6 180 0.0 0.0 0.00 0.00 0.00 64 865.6
20260501210506 6 315 0.0 0.0 0.00 0.00 0.00 64 865.5
20260501210006 6 22 0.0 0.0 0.00 0.00 0.00 66 865.5
20260501205506 5 315 0.0 0.0 0.00 0.00 0.00 66 865.4
20260501205006 5 0 0.0 0.0 0.00 0.00 0.00 67 865.4
20260501204506 5 67 0.0 0.0 0.00 0.00 0.00 67 865.4
20260501204006 5 180 0.0 0.0 0.00 0.00 0.00 68 865.4
20260501203506 5 315 0.0 0.0 0.00 0.00 0.00 68 865.4
20260501203006 5 315 0.0 0.0 0.00 0.00 0.00 67 865.3
20260501202506 5 315 0.0 0.0 0.00 0.00 0.00 67 865.4
20260501202006 5 315 0.0 0.0 0.00 0.00 0.00 67 865.4
20260501201506 5 315 0.0 0.0 0.00 0.00 0.00 67 865.4
20260501201006 5 315 0.0 0.0 0.00 0.00 0.00 67 865.5
20260501200506 5 315 0.0 0.0 0.00 0.00 0.00 67 865.4